K1VL Weather Reports


Display with metric or nautical units.
time (UTC)temp
F
wind
direction
speed
MPH
gust
MPH
rain 1hr
in
rain 24hr
in
rain mn
in
humidity
%
barometer
mb
20260507130517 40 315 2.0 9.0 0.00 0.78 0.00 91 1009.5
20260507130017 40 315 3.0 6.0 0.00 0.78 0.00 93 1009.5
20260507125517 39 315 5.0 14.0 0.00 0.78 0.00 94 1009.4
20260507125017 39 315 4.0 11.0 0.00 0.78 0.00 97 1009.4
20260507124517 40 315 3.0 8.0 0.00 0.78 0.00 97 1009.2
20260507124017 40 315 2.0 9.0 0.00 0.78 0.00 98 1009.3
20260507123517 40 315 4.0 10.0 0.00 0.78 0.00 98 1009.2
20260507123017 40 315 4.0 12.0 0.00 0.78 0.00 98 1009.2
20260507122517 41 315 3.0 12.0 0.00 0.79 0.00 98 1009.0
20260507122017 40 315 2.0 7.0 0.00 0.79 0.00 99 1008.9
20260507121517 40 293 3.0 9.0 0.00 0.79 0.00 99 1008.9
20260507121016 40 315 3.0 11.0 0.00 0.79 0.00 99 1008.8
20260507120516 40 315 2.0 10.0 0.00 0.79 0.00 99 1008.7
20260507120017 41 315 1.0 7.0 0.00 0.79 0.00 99 1008.8
20260507115517 40 315 2.0 6.0 0.00 0.79 0.00 100 1008.8
20260507115017 40 293 2.0 5.0 0.00 0.79 0.00 100 1008.9
20260507114517 40 293 1.0 2.0 0.00 0.79 0.00 100 1008.9
20260507114017 39 315 2.0 7.0 0.00 0.79 0.00 100 1008.9
20260507113516 40 315 3.0 9.0 0.00 0.79 0.00 100 1008.9
20260507113017 40 315 4.0 10.0 0.00 0.79 0.00 100 1008.8
20260507112517 40 293 3.0 11.0 0.00 0.79 0.00 100 1008.9
20260507112017 40 315 3.0 11.0 0.00 0.79 0.00 100 1008.9
20260507111517 40 315 3.0 7.0 0.00 0.79 0.00 100 1008.9
20260507111037 40 315 2.0 8.0 0.00 0.79 0.00 100 1009.0
20260507110517 40 270 2.0 10.0 0.00 0.79 0.00 100 1008.9
20260507110017 40 315 2.0 4.0 0.00 0.79 0.00 100 1008.9
20260507105516 40 293 1.0 6.0 0.00 0.79 0.00 100 1008.9
20260507105017 40 293 1.0 3.0 0.00 0.79 0.00 100 1008.9
20260507104517 40 0.0 2.0 0.00 0.79 0.00 100 1008.8
20260507104017 40 0.0 1.0 0.00 0.79 0.00 100 1008.8
20260507103517 40 315 1.0 3.0 0.00 0.79 0.00 100 1008.8
20260507103017 40 315 1.0 4.0 0.00 0.79 0.00 100 1008.9
20260507102517 40 0.0 0.0 0.00 0.79 0.00 100 1008.9
20260507102017 40 0.0 3.0 0.00 0.79 0.00 100 1008.8
20260507101517 40 0.0 1.0 0.00 0.79 0.00 100 1008.7
20260507101037 40 0.0 0.0 0.00 0.79 0.00 100 1008.8
20260507100517 40 0.0 1.0 0.00 0.79 0.00 100 1008.7
20260507100017 40 0.0 1.0 0.00 0.79 0.00 100 1008.8
20260507095517 40 0.0 1.0 0.00 0.79 0.00 100 1008.7
20260507095017 40 0.0 0.0 0.00 0.79 0.00 100 1008.7
20260507094517 40 0.0 0.0 0.00 0.79 0.00 100 1008.6
20260507094017 40 0.0 0.0 0.00 0.79 0.00 100 1008.7
20260507093517 40 0.0 0.0 0.00 0.79 0.00 100 1008.7
20260507093017 40 0.0 2.0 0.00 0.79 0.00 100 1008.8
20260507092517 40 0.0 0.0 0.00 0.79 0.00 100 1008.8
20260507092017 40 0.0 1.0 0.00 0.79 0.00 100 1008.9
20260507091517 40 293 1.0 2.0 0.00 0.79 0.00 100 1009.0
20260507091017 40 0.0 1.0 0.00 0.79 0.00 100 1009.0
20260507090517 40 293 1.0 1.0 0.00 0.79 0.00 100 1008.9
20260507090017 40 0.0 1.0 0.00 0.79 0.00 100 1009.0
20260507085516 40 0.0 2.0 0.00 0.79 0.00 100 1009.2
20260507085037 40 0.0 2.0 0.00 0.79 0.00 100 1009.2
20260507084517 40 0.0 2.0 0.00 0.79 0.00 100 1009.4
20260507084017 40 293 1.0 2.0 0.00 0.79 0.00 100 1009.4
20260507083537 40 0.0 1.0 0.00 0.79 0.00 100 1009.3
20260507083017 40 0.0 1.0 0.00 0.79 0.00 100 1009.2
20260507082517 40 0.0 1.0 0.00 0.79 0.00 100 1009.1
20260507082017 40 0.0 2.0 0.00 0.79 0.00 100 1009.1
20260507081517 40 0.0 2.0 0.00 0.79 0.00 100 1009.1
20260507081037 40 0.0 2.0 0.00 0.79 0.00 100 1009.2
20260507080517 40 293 1.0 3.0 0.00 0.79 0.00 100 1009.3
20260507080017 40 0.0 0.0 0.00 0.79 0.00 100 1009.3
20260507075557 40 0.0 0.0 0.00 0.79 0.00 100 1009.3
20260507075017 40 0.0 1.0 0.00 0.79 0.00 100 1009.3
20260507074517 40 0.0 2.0 0.00 0.79 0.00 100 1009.2
20260507074017 40 0.0 1.0 0.00 0.79 0.00 100 1009.2
20260507073557 40 0.0 1.0 0.00 0.79 0.00 100 1009.1
20260507073017 40 0.0 0.0 0.00 0.79 0.00 100 1009.2
20260507072517 40 0.0 1.0 0.00 0.79 0.00 100 1009.0
20260507072037 40 0.0 0.0 0.00 0.79 0.00 100 1008.9
20260507071517 40 0.0 0.0 0.00 0.79 0.00 100 1008.9
20260507071017 40 0.0 0.0 0.00 0.79 0.00 100 1008.8
20260507070517 40 0.0 0.0 0.00 0.79 0.00 100 1008.8
20260507070017 40 0.0 0.0 0.00 0.79 0.00 100 1008.8
20260507065537 40 0.0 0.0 0.00 0.79 0.00 100 1008.7
20260507065017 40 0.0 1.0 0.00 0.79 0.00 100 1008.7
20260507064537 40 0.0 0.0 0.00 0.79 0.00 100 1008.7
20260507064017 40 0.0 0.0 0.00 0.79 0.00 100 1008.8
20260507063517 40 0.0 0.0 0.00 0.79 0.00 100 1008.6
20260507063017 40 0.0 0.0 0.00 0.79 0.00 100 1008.6
20260507062537 40 0.0 0.0 0.00 0.79 0.00 100 1008.8
20260507062019 40 0.0 0.0 0.00 0.79 0.00 100 1008.9
20260507061619 40 0.0 1.0 0.00 0.79 0.00 100 1008.8
20260507061019 40 0.0 1.0 0.00 0.79 0.00 100 1008.7
20260507060539 40 0.0 1.0 0.00 0.79 0.00 100 1008.7
20260507060019 40 0.0 1.0 0.00 0.79 0.00 100 1008.7
20260507055517 40 0.0 1.0 0.00 0.79 0.00 100 1008.7
20260507055037 40 0.0 1.0 0.00 0.79 0.00 100 1008.8
20260507054537 40 0.0 1.0 0.00 0.79 0.00 100 1009.1
20260507054037 39 0.0 1.0 0.00 0.79 0.00 100 1008.9
20260507053517 39 0.0 1.0 0.00 0.79 0.00 100 1009.2
20260507053017 39 0.0 1.0 0.00 0.79 0.00 100 1009.3
20260507052517 39 0.0 2.0 0.00 0.79 0.00 100 1009.5
20260507052037 39 293 1.0 3.0 0.00 0.79 0.00 100 1009.4
20260507051517 39 0.0 2.0 0.00 0.79 0.00 100 1009.2
20260507051017 39 315 1.0 3.0 0.00 0.80 0.00 100 1009.5
20260507050517 39 315 1.0 4.0 0.00 0.81 0.00 100 1009.4
20260507050017 39 315 2.0 6.0 0.00 0.83 0.00 100 1009.3
20260507045517 39 315 1.0 5.0 0.00 0.83 0.00 100 1009.0
20260507045017 39 0.0 1.0 0.00 0.83 0.00 100 1009.1
20260507044517 39 0.0 2.0 0.00 0.83 0.00 100 1009.4
20260507044017 39 293 1.0 3.0 0.00 0.83 0.00 100 1009.5
20260507043537 39 315 1.0 3.0 0.00 0.83 0.00 100 1009.3
20260507043017 40 315 1.0 3.0 0.00 0.83 0.00 100 1009.1
20260507042517 40 0.0 1.0 0.00 0.83 0.00 100 1009.0
20260507042017 40 0.0 0.0 0.00 0.83 0.00 100 1008.8
20260507041517 40 0.0 2.0 0.00 0.83 0.00 100 1008.7
20260507041017 40 0.0 1.0 0.00 0.83 0.00 100 1008.9
20260507040517 40 0.0 0.0 0.00 0.83 0.00 100 1009.0
20260507040017 40 0.0 0.0 0.00 0.83 0.83 100 1009.0
20260507035517 40 0.0 0.0 0.00 0.83 0.83 100 1009.1
20260507035017 40 0.0 1.0 0.00 0.83 0.83 100 1009.2
20260507034511 40 0.0 0.0 0.00 0.83 0.83 100 1009.0
20260507034017 40 0.0 0.0 0.00 0.83 0.83 100 1008.9
20260507033517 40 0.0 0.0 0.00 0.83 0.83 100 1008.9
20260507033017 40 0.0 1.0 0.00 0.83 0.83 100 1009.0
20260507032517 40 0.0 1.0 0.00 0.83 0.83 100 1009.1
20260507032037 40 0.0 0.0 0.00 0.83 0.83 100 1009.1
20260507031517 40 0.0 0.0 0.00 0.83 0.83 100 1009.1
20260507031057 40 0.0 0.0 0.00 0.83 0.83 100 1009.3
20260507030517 40 0.0 2.0 0.00 0.83 0.83 100 1009.2
20260507030017 40 0.0 0.0 0.00 0.83 0.83 100 1009.2
20260507025517 40 0.0 1.0 0.01 0.83 0.83 100 1009.3
20260507025017 40 0.0 1.0 0.01 0.83 0.83 100 1009.3
20260507024517 40 0.0 1.0 0.01 0.83 0.83 100 1009.3
20260507024017 40 0.0 1.0 0.01 0.83 0.83 100 1009.3
20260507023517 40 315 1.0 2.0 0.01 0.83 0.83 100 1009.3
20260507023017 40 0.0 2.0 0.01 0.83 0.83 100 1009.4
20260507022517 40 315 1.0 4.0 0.01 0.83 0.83 100 1009.3
20260507022017 40 315 1.0 3.0 0.01 0.83 0.83 100 1009.5
20260507021517 40 0.0 2.0 0.02 0.83 0.83 100 1009.4
20260507021017 40 293 1.0 2.0 0.02 0.83 0.83 100 1009.4
20260507020517 40 0.0 2.0 0.02 0.83 0.83 100 1009.4
20260507020017 40 0.0 1.0 0.03 0.83 0.83 100 1009.4
20260507015517 40 0.0 2.0 0.02 0.82 0.82 100 1009.5
20260507015017 40 0.0 1.0 0.02 0.82 0.82 100 1009.5
20260507014517 40 0.0 2.0 0.02 0.82 0.82 100 1009.5
20260507014017 40 315 1.0 2.0 0.02 0.82 0.82 100 1009.4
20260507013537 40 293 1.0 1.0 0.02 0.82 0.82 100 1009.3
20260507013017 40 293 1.0 2.0 0.02 0.82 0.82 100 1009.2
20260507012517 40 0.0 1.0 0.03 0.82 0.82 100 1009.1
20260507012017 40 315 2.0 5.0 0.03 0.82 0.82 100 1009.2
20260507011517 40 0.0 2.0 0.02 0.81 0.81 100 1009.2
20260507011017 40 315 1.0 3.0 0.03 0.81 0.81 100 1009.2
20260507010517 40 338 1.0 5.0 0.03 0.81 0.81 100 1009.2
20260507010017 40 293 1.0 2.0 0.02 0.80 0.80 100 1009.1
20260507005517 40 315 2.0 4.0 0.02 0.80 0.80 100 1009.2
20260507005017 40 315 1.0 4.0 0.02 0.80 0.80 100 1009.1
20260507004517 40 315 2.0 4.0 0.03 0.80 0.80 100 1009.1
20260507004017 40 315 2.0 4.0 0.03 0.80 0.80 100 1008.9
20260507003635 40 315 2.0 3.0 0.03 0.80 0.80 100 1008.8
20260507003017 40 0.0 2.0 0.03 0.80 0.80 100 1008.7
20260507002517 40 0.0 1.0 0.02 0.79 0.79 100 1008.7
20260507002037 40 0.0 1.0 0.02 0.79 0.79 100 1008.7
20260507001517 40 0.0 1.0 0.02 0.79 0.79 100 1008.5
20260507001017 40 0.0 0.0 0.01 0.78 0.78 100 1008.3
20260507000537 40 0.0 1.0 0.01 0.78 0.78 100 1008.4
20260507000017 41 0.0 1.0 0.01 0.78 0.78 100 1008.4
20260506235517 40 0.0 2.0 0.01 0.79 0.78 100 1008.3
20260506235017 40 315 1.0 3.0 0.01 0.79 0.78 99 1008.2
20260506234517 40 315 1.0 4.0 0.00 0.78 0.77 99 1008.0
20260506234037 40 315 1.0 3.0 0.00 0.78 0.77 99 1008.0
20260506233517 40 315 1.0 3.0 0.01 0.78 0.77 99 1007.8
20260506233017 40 315 2.0 6.0 0.01 0.78 0.77 99 1007.8
20260506232517 40 315 2.0 6.0 0.01 0.78 0.77 99 1007.9
20260506232017 40 315 4.0 8.0 0.02 0.78 0.77 99 1007.7
20260506231517 41 315 3.0 6.0 0.02 0.78 0.77 99 1007.4
20260506231037 41 315 3.0 6.0 0.02 0.78 0.77 99 1007.4
20260506230517 41 315 3.0 8.0 0.02 0.78 0.77 99 1007.4
20260506230017 42 315 2.0 4.0 0.02 0.78 0.77 99 1007.5
20260506225517 42 315 1.0 5.0 0.02 0.78 0.77 99 1007.5
20260506225017 42 0.0 2.0 0.02 0.78 0.77 99 1007.4
20260506224517 42 315 1.0 5.0 0.02 0.78 0.77 99 1007.3
20260506224017 42 0.0 2.0 0.02 0.78 0.77 99 1007.3
20260506223517 42 0.0 1.0 0.01 0.77 0.76 99 1007.3
20260506223017 43 0.0 1.0 0.01 0.77 0.76 99 1007.2
20260506222517 43 0.0 1.0 0.01 0.77 0.76 99 1007.1
20260506222017 43 225 1.0 2.0 0.01 0.76 0.75 99 1007.1
20260506221517 43 0.0 1.0 0.01 0.76 0.75 99 1007.0
20260506221037 43 0.0 1.0 0.01 0.76 0.75 99 1007.1
20260506220517 43 315 1.0 2.0 0.01 0.76 0.75 99 1007.1
20260506220017 43 0.0 1.0 0.01 0.76 0.75 99 1007.0
20260506215517 44 315 1.0 2.0 0.01 0.76 0.75 99 1006.8
20260506215017 44 315 1.0 3.0 0.01 0.76 0.75 99 1006.8
20260506214517 44 0.0 1.0 0.01 0.76 0.75 99 1006.6
20260506214017 44 293 1.0 2.0 0.01 0.76 0.75 99 1006.6
20260506213517 44 315 1.0 4.0 0.01 0.76 0.75 99 1006.5
20260506213037 44 0.0 1.0 0.01 0.76 0.75 99 1006.6
20260506212517 44 0.0 1.0 0.01 0.76 0.75 99 1006.6
20260506212017 44 0.0 1.0 0.00 0.75 0.74 99 1006.6
20260506211517 44 0.0 1.0 0.01 0.75 0.74 99 1006.6
20260506211017 44 0.0 2.0 0.01 0.75 0.74 99 1006.6
20260506210517 45 0.0 2.0 0.01 0.75 0.74 99 1006.7
20260506210017 45 0.0 2.0 0.02 0.75 0.74 99 1006.6
20260506205517 45 0.0 2.0 0.03 0.75 0.74 99 1006.7
20260506205017 45 0.0 2.0 0.04 0.75 0.74 99 1006.7
20260506204537 45 293 1.0 3.0 0.04 0.75 0.74 99 1006.6
20260506204037 45 293 1.0 3.0 0.04 0.75 0.74 99 1006.6
20260506203517 45 0.0 1.0 0.05 0.75 0.74 99 1006.5
20260506203019 45 0.0 1.0 0.05 0.75 0.74 99 1006.6
20260506202517 44 0.0 2.0 0.06 0.76 0.74 99 1006.5
20260506202017 44 0.0 2.0 0.06 0.77 0.74 99 1006.7
20260506201517 44 315 1.0 2.0 0.06 0.82 0.73 99 1006.8
20260506201017 44 315 1.0 4.0 0.07 0.83 0.73 99 1006.8
20260506200517 44 293 2.0 5.0 0.07 0.83 0.73 98 1006.9
20260506200017 45 293 2.0 5.0 0.07 0.82 0.72 98 1006.7
20260506195517 45 315 3.0 7.0 0.07 0.81 0.71 98 1006.7
20260506195037 45 315 5.0 8.0 0.06 0.80 0.70 98 1006.7
20260506194517 45 315 3.0 7.0 0.06 0.80 0.70 98 1006.6
20260506194017 45 315 2.0 4.0 0.06 0.80 0.70 98 1006.6
20260506193517 46 315 2.0 6.0 0.05 0.79 0.69 97 1006.7
20260506193017 47 338 2.0 6.0 0.06 0.79 0.69 97 1006.7
20260506192517 47 0.0 3.0 0.05 0.78 0.68 98 1006.6
20260506192017 47 315 2.0 4.0 0.05 0.78 0.68 98 1006.7
20260506191517 48 315 2.0 4.0 0.05 0.77 0.67 98 1006.6
20260506191017 48 315 3.0 5.0 0.04 0.76 0.66 98 1006.5
20260506190537 48 315 4.0 7.0 0.04 0.76 0.66 97 1006.6
20260506190018 49 315 4.0 6.0 0.03 0.75 0.65 97 1006.5
20260506185517 50 315 1.0 3.0 0.03 0.74 0.64 97 1006.4
20260506185037 51 338 2.0 5.0 0.04 0.74 0.64 95 1006.5
20260506184517 52 293 2.0 7.0 0.05 0.74 0.64 97 1006.5
20260506184017 53 315 2.0 3.0 0.07 0.74 0.64 95 1006.6
20260506183517 55 270 1.0 6.0 0.11 0.74 0.64 94 1006.7
20260506183017 57 158 1.0 3.0 0.12 0.73 0.63 96 1006.5
20260506182517 57 158 1.0 2.0 0.13 0.73 0.63 98 1006.5
20260506182017 57 158 1.0 4.0 0.15 0.73 0.63 98 1006.5
20260506181517 57 135 1.0 7.0 0.15 0.72 0.62 98 1006.5
20260506181017 56 90 2.0 5.0 0.17 0.72 0.62 99 1006.5
20260506180517 56 90 2.0 3.0 0.19 0.72 0.62 99 1006.5
20260506180017 56 90 2.0 4.0 0.20 0.72 0.62 99 1006.5
20260506175517 56 90 1.0 2.0 0.20 0.71 0.61 99 1006.7
20260506175017 56 113 2.0 3.0 0.21 0.70 0.60 99 1006.8
20260506174517 56 135 1.0 3.0 0.21 0.69 0.59 99 1006.9
20260506174017 56 90 1.0 2.0 0.21 0.67 0.57 99 1006.9
20260506173517 56 90 1.0 2.0 0.20 0.63 0.53 98 1007.0
20260506173017 56 90 2.0 3.0 0.19 0.61 0.51 99 1007.1
20260506172517 56 90 1.0 4.0 0.20 0.60 0.50 98 1007.3
20260506172017 56 135 1.0 3.0 0.19 0.58 0.48 98 1007.4
20260506171517 56 135 1.0 2.0 0.21 0.57 0.47 98 1007.5
20260506171017 56 0.0 0.0 0.20 0.55 0.45 98 1007.6
20260506170517 56 0.0 1.0 0.24 0.53 0.43 98 1007.7
20260506170017 56 0.0 2.0 0.23 0.52 0.42 98 1007.7
20260506165517 56 90 1.0 2.0 0.23 0.51 0.41 98 1007.7
20260506165017 56 135 1.0 4.0 0.22 0.49 0.39 98 1007.6
20260506164517 56 135 1.0 3.0 0.22 0.48 0.38 98 1007.8
20260506164017 56 225 1.0 3.0 0.21 0.46 0.36 98 1007.8
20260506163517 56 135 1.0 4.0 0.18 0.43 0.33 98 1007.5
20260506163017 56 0.0 1.0 0.18 0.42 0.32 98 1007.5
20260506162517 56 158 1.0 4.0 0.17 0.40 0.30 98 1007.5
20260506162017 56 158 1.0 5.0 0.16 0.39 0.29 98 1007.7
20260506161517 56 90 1.0 3.0 0.13 0.36 0.26 98 1007.6
20260506161017 56 158 1.0 2.0 0.13 0.35 0.25 98 1007.8
20260506160517 56 113 2.0 5.0 0.07 0.29 0.19 97 1007.7
20260506160017 56 113 2.0 2.0 0.07 0.29 0.19 97 1007.9
20260506155517 57 0.0 1.0 0.07 0.28 0.18 97 1007.9
20260506155037 57 0.0 1.0 0.06 0.27 0.17 97 1008.0
20260506154537 57 0.0 0.0 0.06 0.26 0.16 97 1008.1
20260506154037 57 0.0 1.0 0.05 0.25 0.15 97 1008.1
20260506153517 57 0.0 2.0 0.06 0.25 0.15 97 1008.3
20260506153017 57 0.0 0.0 0.05 0.24 0.14 97 1008.4
20260506152517 56 0.0 0.0 0.04 0.23 0.13 97 1008.5
20260506152017 57 0.0 1.0 0.05 0.23 0.13 97 1008.5
20260506151537 57 0.0 0.0 0.05 0.23 0.13 97 1008.6
20260506151017 56 0.0 0.0 0.04 0.22 0.12 98 1008.8
20260506150517 56 0.0 0.0 0.05 0.22 0.12 97 1008.8
20260506150017 56 0.0 0.0 0.05 0.22 0.12 97 1008.9
20260506145517 56 0.0 0.0 0.05 0.21 0.11 97 1008.9
20260506145037 56 0.0 0.0 0.05 0.21 0.11 97 1008.9
20260506144517 56 0.0 0.0 0.04 0.20 0.10 97 1008.9
20260506144017 56 0.0 0.0 0.04 0.20 0.10 97 1008.9
20260506143517 56 0.0 0.0 0.03 0.19 0.09 96 1009.0
20260506143017 56 0.0 0.0 0.04 0.19 0.09 96 1009.0
20260506142517 56 0.0 1.0 0.04 0.19 0.09 96 1009.0
20260506142037 56 0.0 0.0 0.03 0.18 0.08 96 1009.0
20260506141517 56 0.0 0.0 0.03 0.18 0.08 97 1008.9
20260506141037 56 0.0 0.0 0.03 0.18 0.08 96 1008.9
20260506140517 56 0.0 1.0 0.02 0.17 0.07 96 1009.0
20260506140017 56 315 1.0 4.0 0.02 0.17 0.07 95 1008.8
20260506135517 56 0.0 1.0 0.01 0.16 0.06 96 1008.9
20260506135018 56 0.0 0.0 0.01 0.16 0.06 97 1008.8
20260506134517 56 0.0 1.0 0.01 0.16 0.06 96 1008.8
20260506134017 56 0.0 2.0 0.01 0.16 0.06 96 1008.7
20260506133537 56 248 1.0 3.0 0.01 0.16 0.06 96 1008.7
20260506133037 56 0.0 1.0 0.00 0.15 0.05 96 1008.8
20260506132517 55 0.0 0.0 0.01 0.15 0.05 97 1008.8
20260506132017 55 0.0 1.0 0.01 0.15 0.05 97 1008.7
20260506131517 55 0.0 0.0 0.01 0.15 0.05 97 1008.9
20260506131017 55 0.0 0.0 0.01 0.15 0.05 97 1009.1